2020-09-09 00:07:41 r, 20.51m,0000000001Hz,0000862293c,0000001.871s, 015.1C,00002191
2020-09-09 00:17:40 r, 20.48m,0000000000Hz,0000837100c,0000001.817s, 014.8C,00002191
2020-09-09 00:27:39 r, 20.45m,0000000000Hz,0000817018c,0000001.773s, 014.8C,00002191
2020-09-09 00:37:42 r, 20.41m,0000000001Hz,0000784211c,0000001.702s, 014.8C,00002191
2020-09-09 00:47:40 r, 20.38m,0000000001Hz,0000763407c,0000001.657s, 014.5C,00002191
2020-09-09 00:57:39 r, 20.32m,0000000001Hz,0000731788c,0000001.588s, 014.5C,00002191
2020-09-09 01:07:39 r, 20.13m,0000000001Hz,0000612380c,0000001.329s, 014.5C,00002191
2020-09-09 01:17:40 r, 20.03m,0000000001Hz,0000561651c,0000001.219s, 014.5C,00002191
2020-09-09 01:27:39 r, 20.04m,0000000000Hz,0000567184c,0000001.231s, 014.8C,00002191
2020-09-09 01:37:39 r, 19.75m,0000000001Hz,0000433206c,0000000.940s, 014.8C,00002191
2020-09-09 01:47:41 r, 19.22m,0000000002Hz,0000265198c,0000000.576s, 014.8C,00002191
2020-09-09 01:57:39 r, 18.96m,0000000002Hz,0000211325c,0000000.459s, 014.8C,00002191
2020-09-09 02:07:39 r, 18.84m,0000000002Hz,0000189287c,0000000.411s, 015.1C,00002191
2020-09-09 02:17:42 r, 19.07m,0000000002Hz,0000231463c,0000000.502s, 015.1C,00002191
2020-09-09 02:27:39 r, 18.80m,0000000003Hz,0000181838c,0000000.395s, 015.4C,00002191
2020-09-09 02:37:39 r, 19.08m,0000000002Hz,0000234028c,0000000.508s, 015.4C,00002191
2020-09-09 02:47:42 r, 19.10m,0000000002Hz,0000239260c,0000000.519s, 015.4C,00002191
2020-09-09 02:57:39 r, 18.69m,0000000003Hz,0000163851c,0000000.356s, 015.1C,00002191
2020-09-09 03:07:39 r, 18.88m,0000000003Hz,0000194835c,0000000.423s, 015.1C,00002191
2020-09-09 03:17:40 r, 19.55m,0000000002Hz,0000360374c,0000000.782s, 015.1C,00002191
2020-09-09 03:27:39 r, 19.17m,0000000002Hz,0000254731c,0000000.553s, 015.1C,00002191
2020-09-09 03:37:39 r, 19.08m,0000000002Hz,0000236518c,0000000.513s, 014.8C,00002191
2020-09-09 03:47:40 r, 18.98m,0000000002Hz,0000214961c,0000000.466s, 014.8C,00002191
2020-09-09 03:57:39 r, 18.91m,0000000003Hz,0000201573c,0000000.437s, 014.8C,00002191
2020-09-09 04:07:39 r, 18.27m,0000000004Hz,0000111732c,0000000.242s, 014.8C,00002191
2020-09-09 04:17:41 r, 18.32m,0000000004Hz,0000117204c,0000000.254s, 015.1C,00002191
2020-09-09 04:27:39 r, 18.81m,0000000002Hz,0000183722c,0000000.399s, 015.1C,00002191
2020-09-09 04:37:39 r, 18.84m,0000000002Hz,0000187433c,0000000.407s, 015.1C,00002191
2020-09-09 04:47:42 r, 18.89m,0000000002Hz,0000196749c,0000000.427s, 014.8C,00002191
2020-09-09 04:57:40 r, 18.38m,0000000004Hz,0000123811c,0000000.269s, 014.5C,00002191
2020-09-09 05:07:39 r, 17.92m,0000000005Hz,0000081270c,0000000.176s, 014.5C,00002191
2020-09-09 05:17:42 r, 17.84m,0000000006Hz,0000075156c,0000000.163s, 014.1C,00002191
2020-09-09 05:27:40 r, 18.14m,0000000006Hz,0000099309c,0000000.216s, 014.1C,00002191
2020-09-09 05:37:39 r, 17.60m,0000000008Hz,0000060340c,0000000.131s, 013.8C,00002191
2020-09-09 05:47:40 r, 17.42m,0000000009Hz,0000050797c,0000000.110s, 013.8C,00002191
2020-09-09 05:57:40 r, 17.02m,0000000013Hz,0000035332c,0000000.077s, 013.5C,00002191
2020-09-09 06:07:39 r, 16.08m,0000000030Hz,0000014832c,0000000.032s, 013.5C,00002191
2020-09-09 06:17:41 r, 14.38m,0000000149Hz,0000000000c,0000000.000s, 013.8C,00002191
2020-09-09 06:27:40 r, 12.56m,0000000803Hz,0000000000c,0000000.000s, 013.8C,00002191
2020-09-09 06:37:39 r, 10.48m,0000005443Hz,0000000000c,0000000.000s, 013.8C,00002191
2020-09-09 06:47:42 r, 08.72m,0000027551Hz,0000000000c,0000000.000s, 014.1C,00002191
2020-09-09 06:57:40 r, 07.63m,0000075624Hz,0000000000c,0000000.000s, 014.1C,00002191
2020-09-09 07:07:39 r, 06.75m,0000168582Hz,0000000000c,0000000.000s, 014.1C,00002191
2020-09-09 07:17:42 r, 06.20m,0000279647Hz,0000000000c,0000000.000s, 014.5C,00002191
2020-09-09 07:27:40 r, 05.92m,0000364326Hz,0000000000c,0000000.000s, 014.8C,00002191
2020-09-09 07:37:39 r, 00.00m,0000597761Hz,0000000000c,0000000.000s, 015.1C,00002191
2020-09-09 07:47:40 r, 00.00m,0000597751Hz,0000000000c,0000000.000s, 015.4C,00002191
2020-09-09 07:57:41 r, 00.00m,0000597580Hz,0000000000c,0000000.000s, 016.4C,00002191
2020-09-09 08:07:39 r, 00.00m,0000597509Hz,0000000000c,0000000.000s, 018.0C,00002191
2020-09-09 08:17:41 r, 00.00m,0000597348Hz,0000000000c,0000000.000s, 019.6C,00002191
2020-09-09 08:27:40 r, 00.00m,0000597324Hz,0000000000c,0000000.000s, 020.6C,00002191
2020-09-09 08:37:39 r, 00.00m,0000597119Hz,0000000000c,0000000.000s, 021.2C,00002191
2020-09-09 08:47:40 r, 00.00m,0000597076Hz,0000000000c,0000000.000s, 021.9C,00002191
2020-09-09 08:57:42 r, 00.00m,0000596969Hz,0000000000c,0000000.000s, 022.8C,00002191
2020-09-09 09:07:39 r, 00.00m,0000596992Hz,0000000000c,0000000.000s, 023.2C,00002191
2020-09-09 09:17:42 r, 00.00m,0000596890Hz,0000000000c,0000000.000s, 023.2C,00002191
2020-09-09 09:27:40 r, 00.00m,0000596907Hz,0000000000c,0000000.000s, 023.5C,00002191
2020-09-09 09:37:39 r, 00.00m,0000596895Hz,0000000000c,0000000.000s, 023.8C,00002191
2020-09-09 09:47:42 r, 00.00m,0000596816Hz,0000000000c,0000000.000s, 024.8C,00002191
2020-09-09 09:57:40 r, 00.00m,0000596671Hz,0000000000c,0000000.000s, 026.4C,00002191
2020-09-09 10:07:39 r, 00.00m,0000596615Hz,0000000000c,0000000.000s, 027.0C,00002191
2020-09-09 10:17:40 r, 00.00m,0000596375Hz,0000000000c,0000000.000s, 028.3C,00002191
2020-09-09 10:27:41 r, 00.00m,0000596302Hz,0000000000c,0000000.000s, 029.6C,00002191
2020-09-09 10:37:39 r, 00.00m,0000596214Hz,0000000000c,0000000.000s, 029.3C,00002191
2020-09-09 10:47:41 r, 00.00m,0000596246Hz,0000000000c,0000000.000s, 029.0C,00002191
2020-09-09 10:57:40 r, 00.00m,0000596026Hz,0000000000c,0000000.000s, 030.6C,00002191
2020-09-09 11:07:39 r, 00.00m,0000595905Hz,0000000000c,0000000.000s, 031.5C,00002191
2020-09-09 11:17:42 r, 00.00m,0000595770Hz,0000000000c,0000000.000s, 032.5C,00002191
2020-09-09 11:27:40 r, 00.00m,0000595877Hz,0000000000c,0000000.000s, 032.2C,00002191
2020-09-09 11:37:39 r, 00.00m,0000595910Hz,0000000000c,0000000.000s, 032.2C,00002191
2020-09-09 11:47:42 r, 00.00m,0000596108Hz,0000000000c,0000000.000s, 030.6C,00002191
2020-09-09 11:57:40 r, 00.00m,0000596131Hz,0000000000c,0000000.000s, 029.6C,00002191
2020-09-09 12:07:39 r, 00.00m,0000596138Hz,0000000000c,0000000.000s, 030.2C,00002191
2020-09-09 12:17:40 r, 00.00m,0000596094Hz,0000000000c,0000000.000s, 030.2C,00002191
2020-09-09 12:27:41 r, 00.00m,0000596043Hz,0000000000c,0000000.000s, 030.6C,00002191
2020-09-09 12:37:39 r, 00.00m,0000595915Hz,0000000000c,0000000.000s, 031.9C,00002191
2020-09-09 12:47:41 r, 00.00m,0000595596Hz,0000000000c,0000000.000s, 033.8C,00002191
2020-09-09 12:57:40 r, 00.00m,0000595547Hz,0000000000c,0000000.000s, 033.8C,00002191
2020-09-09 13:07:39 r, 00.00m,0000595320Hz,0000000000c,0000000.000s, 035.1C,00002191
2020-09-09 13:17:40 r, 00.00m,0000595199Hz,0000000000c,0000000.000s, 036.0C,00002191
2020-09-09 13:27:42 r, 00.00m,0000595158Hz,0000000000c,0000000.000s, 037.0C,00002191
2020-09-09 13:37:39 r, 00.00m,0000595130Hz,0000000000c,0000000.000s, 037.7C,00002191
2020-09-09 13:47:42 r, 00.00m,0000595112Hz,0000000000c,0000000.000s, 037.7C,00002191
2020-09-09 13:57:40 r, 00.00m,0000595200Hz,0000000000c,0000000.000s, 036.4C,00002191
2020-09-09 14:07:39 r, 00.00m,0000595167Hz,0000000000c,0000000.000s, 036.7C,00002191
2020-09-09 14:17:42 r, 00.00m,0000595023Hz,0000000000c,0000000.000s, 037.7C,00002191
2020-09-09 14:27:40 r, 00.00m,0000595215Hz,0000000000c,0000000.000s, 036.4C,00002191
2020-09-09 14:37:39 r, 00.00m,0000595019Hz,0000000000c,0000000.000s, 037.3C,00002191
2020-09-09 14:47:40 r, 00.00m,0000594831Hz,0000000000c,0000000.000s, 038.6C,00002191
2020-09-09 14:57:42 r, 00.00m,0000594887Hz,0000000000c,0000000.000s, 038.0C,00002191
2020-09-09 15:07:39 r, 00.00m,0000594868Hz,0000000000c,0000000.000s, 038.3C,00002191
2020-09-09 15:17:41 r, 00.00m,0000594983Hz,0000000000c,0000000.000s, 038.3C,00002191
2020-09-09 15:27:40 r, 00.00m,0000594768Hz,0000000000c,0000000.000s, 039.0C,00002191
2020-09-09 15:37:39 r, 00.00m,0000594941Hz,0000000000c,0000000.000s, 038.6C,00002191
2020-09-09 15:47:42 r, 00.00m,0000594991Hz,0000000000c,0000000.000s, 038.3C,00002191
2020-09-09 15:57:40 r, 00.00m,0000595077Hz,0000000000c,0000000.000s, 037.7C,00002191
2020-09-09 16:07:39 r, 00.00m,0000595158Hz,0000000000c,0000000.000s, 037.3C,00002191
2020-09-09 16:17:42 r, 00.00m,0000595107Hz,0000000000c,0000000.000s, 037.0C,00002191
2020-09-09 16:27:40 r, 00.00m,0000595199Hz,0000000000c,0000000.000s, 036.7C,00002191
2020-09-09 16:37:39 r, 00.00m,0000595215Hz,0000000000c,0000000.000s, 036.0C,00002191
2020-09-09 16:47:40 r, 00.00m,0000595358Hz,0000000000c,0000000.000s, 036.0C,00002191
2020-09-09 16:57:41 r, 00.00m,0000595390Hz,0000000000c,0000000.000s, 035.7C,00002191
2020-09-09 17:07:39 r, 00.00m,0000595372Hz,0000000000c,0000000.000s, 035.4C,00002191
2020-09-09 17:17:41 r, 00.00m,0000595370Hz,0000000000c,0000000.000s, 034.8C,00002191
2020-09-09 17:27:40 r, 00.00m,0000595470Hz,0000000000c,0000000.000s, 034.1C,00002191
2020-09-09 17:37:39 r, 00.00m,0000595643Hz,0000000000c,0000000.000s, 033.5C,00002191
2020-09-09 17:47:39 r, 00.00m,0000595677Hz,0000000000c,0000000.000s, 032.8C,00002191
2020-09-09 17:57:42 r, 00.00m,0000595791Hz,0000000000c,0000000.000s, 032.5C,00002191
2020-09-09 18:07:39 r, 00.00m,0000595868Hz,0000000000c,0000000.000s, 031.9C,00002191
2020-09-09 18:17:39 r, 00.00m,0000595924Hz,0000000000c,0000000.000s, 031.5C,00002191
2020-09-09 18:27:40 r, 00.00m,0000595975Hz,0000000000c,0000000.000s, 031.2C,00002191
2020-09-09 18:37:39 r, 00.00m,0000596093Hz,0000000000c,0000000.000s, 030.6C,00002191
2020-09-09 18:47:39 r, 00.00m,0000596110Hz,0000000000c,0000000.000s, 029.9C,00002191
2020-09-09 18:57:41 r, 00.00m,0000596109Hz,0000000000c,0000000.000s, 029.3C,00002191
2020-09-09 19:07:39 r, 00.00m,0000500505Hz,0000000000c,0000000.000s, 028.6C,00002191
2020-09-09 19:17:39 r, 05.86m,0000384767Hz,0000000000c,0000000.000s, 028.0C,00002191
2020-09-09 19:27:42 r, 06.18m,0000286556Hz,0000000000c,0000000.000s, 027.0C,00002191
2020-09-09 19:37:39 r, 06.63m,0000188990Hz,0000000000c,0000000.000s, 026.1C,00002191
2020-09-09 19:47:39 r, 07.29m,0000102460Hz,0000000000c,0000000.000s, 025.1C,00002191
2020-09-09 19:57:42 r, 08.28m,0000041394Hz,0000000000c,0000000.000s, 024.4C,00002191
2020-09-09 20:07:39 r, 09.75m,0000010688Hz,0000000000c,0000000.000s, 023.5C,00002191
2020-09-09 20:17:39 r, 11.63m,0000001879Hz,0000000000c,0000000.000s, 023.2C,00002191
2020-09-09 20:27:40 r, 13.75m,0000000269Hz,0000000000c,0000000.000s, 022.8C,00002191
2020-09-09 20:37:39 r, 15.80m,0000000040Hz,0000011416c,0000000.025s, 022.8C,00002191
2020-09-09 20:47:39 r, 17.48m,0000000009Hz,0000053957c,0000000.117s, 022.5C,00002191
2020-09-09 20:57:40 r, 18.89m,0000000003Hz,0000195924c,0000000.425s, 022.2C,00002191
2020-09-09 21:07:39 r, 19.98m,0000000001Hz,0000533846c,0000001.159s, 021.9C,00002191
2020-09-09 21:17:39 r, 20.62m,0000000000Hz,0000951174c,0000002.064s, 021.2C,00002191
2020-09-09 21:27:41 r, 20.84m,0000000001Hz,0001177867c,0000002.556s, 020.9C,00002191
2020-09-09 21:37:40 r, 20.91m,0000000001Hz,0001252613c,0000002.718s, 020.6C,00002191
2020-09-09 21:47:39 r, 20.94m,0000000000Hz,0001278360c,0000002.774s, 020.3C,00002191
2020-09-09 21:57:42 r, 20.94m,0000000001Hz,0001279000c,0000002.776s, 020.3C,00002191
2020-09-09 22:07:40 r, 20.94m,0000000000Hz,0001291813c,0000002.803s, 020.3C,00002191
2020-09-09 22:17:39 r, 20.94m,0000000001Hz,0001283571c,0000002.786s, 020.3C,00002191
2020-09-09 22:27:42 r, 20.94m,0000000001Hz,0001292768c,0000002.805s, 020.3C,00002191
2020-09-09 22:37:40 r, 20.95m,0000000001Hz,0001300704c,0000002.823s, 020.3C,00002191
2020-09-09 22:47:39 r, 20.96m,0000000001Hz,0001310433c,0000002.844s, 020.3C,00002191
2020-09-09 22:57:40 r, 20.97m,0000000000Hz,0001317322c,0000002.859s, 020.6C,00002191
2020-09-09 23:07:40 r, 20.96m,0000000000Hz,0001306709c,0000002.836s, 020.6C,00002191
2020-09-09 23:17:39 r, 20.94m,0000000001Hz,0001280661c,0000002.779s, 020.3C,00002191
2020-09-09 23:27:41 r, 20.90m,0000000000Hz,0001238776c,0000002.688s, 020.3C,00002191
2020-09-09 23:37:40 r, 20.85m,0000000000Hz,0001182208c,0000002.566s, 019.9C,00002191
2020-09-09 23:47:39 r, 20.80m,0000000000Hz,0001135274c,0000002.464s, 019.6C,00002191
2020-09-09 23:57:42 r, 20.77m,0000000001Hz,0001100254c,0000002.388s, 019.6C,00002191
